Location: Caltech
(34.1382°N, 118.1253°W)
Time: 10:09:32
(UTC-07:00)

Tiros 1 despin weight - Visible Passes

Search period start: 23 October 2017 00:00
Search period end: 02 November 2017 00:00
Orbit: 594 x 644 km, 48.2° (Epoch: 23 October)

Date Brightness Start Highest point End Pass type
(mag) Time Alt. Az. Time Alt. Az. Time Alt. Az.
23 Oct ? 18:56:40 10° W 19:00:30 25° NNW 19:04:24 10° NNE visible
23 Oct ? 20:40:52 10° NW 20:42:05 13° NNW 20:42:05 13° NNW visible
24 Oct ? 19:14:38 10° WNW 19:17:51 18° NNW 19:21:06 10° NNE visible
25 Oct ? 19:32:39 10° NW 19:35:18 15° N 19:37:16 12° NNE visible
26 Oct ? 19:50:22 10° NNW 19:52:49 14° N 19:53:22 14° N visible
27 Oct ? 18:24:20 10° NW 18:27:14 16° NNW 18:30:10 10° NNE visible
27 Oct ? 20:07:34 10° NNW 20:09:28 15° N 20:09:28 15° N visible
28 Oct ? 18:42:15 10° NW 18:44:43 14° N 18:47:12 10° NNE visible
28 Oct ? 20:24:23 10° NNW 20:25:35 15° NNW 20:25:35 15° NNW visible
29 Oct ? 18:59:44 10° NNW 19:02:14 14° N 19:04:39 10° NE visible
29 Oct ? 20:41:04 10° NW 20:41:43 13° NNW 20:41:43 13° NNW visible
30 Oct ? 19:16:44 10° NNW 19:19:43 17° NNE 19:20:49 15° NNE visible
30 Oct ? 20:57:44 10° NW 20:57:54 11° NW 20:57:54 11° NW visible
31 Oct ? 19:33:27 10° NNW 19:37:03 22° NNE 19:37:03 22° NNE visible
01 Nov ? 19:50:07 10° NW 19:53:21 30° N 19:53:21 30° N visible
